Regional Weather Roundup
Issued by NWS

Home | Current Version | Previous Version | Graphics & Text | Print | Product List | Glossary On
Versions: 1 2 3 4 5 6 7 8 9 10 11 12 13 14 15 16 17 18 19 20 21 22 23 24 25 26 27 28 29 30 31 32 33 34 35 36 37 38 39 40 41 42 43 44 45 46 47 48 49 50
000
ASUS43 KFSD 221402
RWRSD

WEATHER ROUNDUP FOR SOUTH DAKOTA
NATIONAL WEATHER SERVICE SIOUX FALLS SD
900 AM CDT MON MAY 22 2017

NOTE: "FAIR" INDICATES FEW OR NO CLOUDS BELOW 12,000 FEET WITH NO
SIGNIFICANT WEATHER AND/OR OBSTRUCTIONS TO VISIBILITY.


SDZ001>005-009-010-012>017-221500-
NORTHWEST AND NORTH CENTRAL SOUTH DAKOTA

CITY           SKY/WX    TMP DP  RH WIND       PRES   REMARKS
BUFFALO          N/A     53  45  74 NW16G25   29.95S
FAITH            N/A     52  48  86 NW20      29.97R
MOBRIDGE       RAIN      51  46  83 N9        29.89R
$$

SDZ012>016-024>037-041>051-057-063-072>074-221500-
SOUTHWEST AND SOUTH CENTRAL SOUTH DAKOTA

CITY           SKY/WX    TMP DP  RH WIND       PRES   REMARKS
RAPID CTY ARPT SUNNY     53  44  71 N8        30.02R
PIERRE         LGT RAIN  50  47  89 NW16      29.93S
CUSTER         CLOUDY    47  34  60 NW8       30.06S
ELLSWORTH AFB  SUNNY     53  45  74 NW9       30.01R
PHILIP         CLOUDY    52  49  89 W10       29.98S
PINE RIDGE     CLOUDY    48  43  82 NW5       30.05R
SPEARFISH      FAIR      54  39  58 NW16G24   30.06R
WINNER         FAIR      54  44  69 NW17      29.97R
$$

SDZ004>011-016>023-039-040-221500-
NORTHEAST SOUTH DAKOTA

CITY           SKY/WX    TMP DP  RH WIND       PRES   REMARKS
ABERDEEN       PTSUNNY   48  42  80 N13       29.89S
WATERTOWN      SUNNY     51  45  79 NE6       29.87R
BROOKINGS      SUNNY     52  45  77 CALM      29.88S
SISSETON         N/A     50  42  74 N9        29.89R
$$

SDZ017-020-022-023-036>040-048>070-221500-
SOUTHEAST SOUTH DAKOTA

CITY           SKY/WX    TMP DP  RH WIND       PRES   REMARKS
SIOUX FALLS    MOSUNNY   55  47  74 NW7       29.89S
HURON          MOSUNNY   55  47  74 W10       29.88F
MITCHELL       SUNNY     57  48  72 W12       29.90S
YANKTON        MOSUNNY   57  46  66 S10       29.92F
$$

ABBREVIATIONS USED IN REMARKS
   TC - TEMPERATURE IN CELSIUS
  WCI - WIND CHILL INDEX
   HX - HEAT INDEX
  VSB - VISIBILITY




USA.gov is the U.S. government's official web portal to all federal, state and local government web resources and services.